Time,TemperatureF,DewpointF,PressureIn,WindDirection,WindDirectionDegrees,WindSpeedMPH,WindSpeedGustMPH,Humidity,HourlyPrecipIn,Conditions,Clouds,dailyrainin,SoftwareType,DateUTC
2013-05-06 00:01:00,52.0,48.9,30.06,North,355,0.0,0.0,89,0.00,,,0.00,meteohub,2013-05-06 05:01:00,
2013-05-06 00:07:00,52.0,48.9,30.05,North,355,0.0,0.0,89,0.00,,,0.00,meteohub,2013-05-06 05:07:00,
2013-05-06 00:12:00,51.6,48.6,30.05,North,355,0.0,0.0,89,0.00,,,0.00,meteohub,2013-05-06 05:12:00,
2013-05-06 00:16:00,51.4,48.4,30.06,North,355,0.0,0.0,89,0.00,,,0.00,meteohub,2013-05-06 05:16:00,
2013-05-06 00:21:00,51.3,48.2,30.05,North,355,0.0,0.0,89,0.00,,,0.00,meteohub,2013-05-06 05:21:00,
2013-05-06 00:27:00,51.3,48.2,30.05,North,355,0.0,0.0,89,0.00,,,0.00,meteohub,2013-05-06 05:27:00,
2013-05-06 00:32:00,51.1,48.2,30.05,North,355,0.0,0.0,90,0.00,,,0.00,meteohub,2013-05-06 05:32:00,
2013-05-06 00:36:00,51.1,48.6,30.05,North,355,0.0,0.0,91,0.00,,,0.00,meteohub,2013-05-06 05:36:00,
2013-05-06 00:41:00,51.1,48.6,30.05,North,355,0.0,0.0,91,0.00,,,0.00,meteohub,2013-05-06 05:41:00,
2013-05-06 00:46:00,50.9,48.4,30.05,North,355,0.0,0.0,91,0.00,,,0.00,meteohub,2013-05-06 05:46:00,
2013-05-06 00:52:00,50.7,47.8,30.05,North,355,0.0,0.0,90,0.00,,,0.00,meteohub,2013-05-06 05:52:00,
2013-05-06 00:57:00,50.7,48.2,30.05,North,355,0.0,0.0,91,0.00,,,0.00,meteohub,2013-05-06 05:57:00,
2013-05-06 01:02:00,50.7,48.2,30.05,North,355,0.0,0.0,91,0.00,,,0.00,meteohub,2013-05-06 06:02:00,
2013-05-06 01:07:00,50.7,48.2,30.04,North,355,0.0,0.0,91,0.00,,,0.00,meteohub,2013-05-06 06:07:00,
2013-05-06 01:12:00,50.5,48.0,30.04,North,355,0.0,0.0,91,0.00,,,0.00,meteohub,2013-05-06 06:12:00,
2013-05-06 01:16:00,50.5,48.0,30.04,North,355,0.0,0.0,91,0.00,,,0.00,meteohub,2013-05-06 06:16:00,
2013-05-06 01:22:00,50.5,48.0,30.04,North,355,0.0,0.0,91,0.00,,,0.00,meteohub,2013-05-06 06:22:00,
2013-05-06 01:27:00,50.5,48.0,30.04,North,355,0.0,0.0,91,0.00,,,0.00,meteohub,2013-05-06 06:27:00,
2013-05-06 01:32:00,50.5,48.0,30.04,North,355,0.0,0.0,91,0.00,,,0.00,meteohub,2013-05-06 06:32:00,
2013-05-06 01:37:00,50.4,47.8,30.04,North,355,0.0,0.0,91,0.00,,,0.00,meteohub,2013-05-06 06:37:00,
2013-05-06 01:42:00,50.4,48.2,30.03,North,355,0.0,0.0,92,0.00,,,0.00,meteohub,2013-05-06 06:42:00,
2013-05-06 01:47:00,50.4,48.2,30.03,North,355,0.0,0.0,92,0.00,,,0.00,meteohub,2013-05-06 06:47:00,
2013-05-06 01:52:00,50.4,48.2,30.03,North,355,0.0,0.0,92,0.00,,,0.00,meteohub,2013-05-06 06:52:00,
2013-05-06 01:57:00,50.4,48.2,30.03,North,355,0.0,0.0,92,0.00,,,0.00,meteohub,2013-05-06 06:57:00,
2013-05-06 02:02:00,50.4,48.2,30.03,North,355,0.0,0.0,92,0.00,,,0.00,meteohub,2013-05-06 07:02:00,
2013-05-06 02:06:00,50.2,48.0,30.03,North,355,0.0,0.0,92,0.00,,,0.00,meteohub,2013-05-06 07:06:00,
2013-05-06 02:11:00,50.2,48.0,30.03,North,355,0.0,0.0,92,0.00,,,0.00,meteohub,2013-05-06 07:11:00,
2013-05-06 02:17:00,50.2,48.0,30.03,North,355,0.0,0.0,92,0.00,,,0.00,meteohub,2013-05-06 07:17:00,
2013-05-06 02:22:00,50.2,48.0,30.02,North,355,0.0,0.0,92,0.00,,,0.00,meteohub,2013-05-06 07:22:00,
2013-05-06 02:26:00,50.0,47.8,30.02,North,355,0.0,1.0,92,0.00,,,0.00,meteohub,2013-05-06 07:26:00,
2013-05-06 02:31:00,50.0,47.8,30.02,North,355,0.0,1.0,92,0.00,,,0.00,meteohub,2013-05-06 07:31:00,
2013-05-06 02:37:00,50.0,47.8,30.02,North,355,0.0,1.0,92,0.00,,,0.00,meteohub,2013-05-06 07:37:00,
2013-05-06 02:42:00,50.0,47.5,30.02,North,355,0.0,0.0,91,0.00,,,0.00,meteohub,2013-05-06 07:42:00,
2013-05-06 02:46:00,50.0,47.5,30.02,North,355,0.0,0.0,91,0.00,,,0.00,meteohub,2013-05-06 07:46:00,
2013-05-06 02:52:00,50.0,47.5,30.02,North,355,0.0,0.0,91,0.00,,,0.00,meteohub,2013-05-06 07:52:00,
2013-05-06 02:57:00,50.0,47.5,30.02,North,355,0.0,0.0,91,0.00,,,0.00,meteohub,2013-05-06 07:57:00,
2013-05-06 03:02:00,50.0,47.5,30.02,North,355,0.0,0.0,91,0.00,,,0.00,meteohub,2013-05-06 08:02:00,
2013-05-06 03:06:00,50.0,47.5,30.02,North,355,0.0,0.0,91,0.00,,,0.00,meteohub,2013-05-06 08:06:00,
2013-05-06 03:12:00,50.0,47.1,30.02,North,355,0.0,0.0,90,0.00,,,0.00,meteohub,2013-05-06 08:12:00,
2013-05-06 03:17:00,50.2,47.3,30.02,North,355,0.0,0.0,90,0.00,,,0.00,meteohub,2013-05-06 08:17:00,
2013-05-06 03:22:00,50.0,47.1,30.02,North,355,0.0,0.0,90,0.00,,,0.00,meteohub,2013-05-06 08:22:00,
2013-05-06 03:27:00,50.0,46.9,30.02,North,355,0.0,0.0,89,0.00,,,0.00,meteohub,2013-05-06 08:27:00,
2013-05-06 03:32:00,50.2,47.1,30.02,North,355,0.0,1.0,89,0.00,,,0.00,meteohub,2013-05-06 08:32:00,
2013-05-06 03:37:00,50.2,47.1,30.02,North,355,0.0,1.0,89,0.00,,,0.00,meteohub,2013-05-06 08:37:00,
2013-05-06 03:42:00,50.2,46.8,30.02,North,355,0.0,1.0,88,0.00,,,0.00,meteohub,2013-05-06 08:42:00,
2013-05-06 03:47:00,50.2,46.8,30.02,North,355,0.0,0.0,88,0.00,,,0.00,meteohub,2013-05-06 08:47:00,
2013-05-06 03:52:00,50.2,47.1,30.02,North,355,0.0,1.0,89,0.00,,,0.00,meteohub,2013-05-06 08:52:00,
2013-05-06 03:57:00,50.2,47.1,30.02,North,355,0.0,1.0,89,0.00,,,0.00,meteohub,2013-05-06 08:57:00,
2013-05-06 04:02:00,50.2,47.1,30.02,North,355,0.0,1.0,89,0.00,,,0.00,meteohub,2013-05-06 09:02:00,
2013-05-06 04:07:00,50.2,47.1,30.02,North,355,0.0,2.0,89,0.00,,,0.00,meteohub,2013-05-06 09:07:00,
2013-05-06 04:12:00,50.2,47.1,30.02,North,355,0.0,2.0,89,0.00,,,0.00,meteohub,2013-05-06 09:12:00,
2013-05-06 04:17:00,50.2,47.1,30.02,North,355,0.0,1.0,89,0.00,,,0.00,meteohub,2013-05-06 09:17:00,
2013-05-06 04:22:00,50.2,47.1,30.02,North,355,0.0,0.0,89,0.00,,,0.00,meteohub,2013-05-06 09:22:00,
2013-05-06 04:27:00,50.2,47.1,30.02,North,355,0.0,0.0,89,0.00,,,0.00,meteohub,2013-05-06 09:27:00,
2013-05-06 04:32:00,50.0,46.9,30.02,North,355,0.0,0.0,89,0.00,,,0.00,meteohub,2013-05-06 09:32:00,
2013-05-06 04:37:00,50.0,46.9,30.02,North,355,0.0,0.0,89,0.00,,,0.00,meteohub,2013-05-06 09:37:00,
2013-05-06 04:42:00,50.0,46.9,30.02,North,355,0.0,0.0,89,0.00,,,0.00,meteohub,2013-05-06 09:42:00,
2013-05-06 04:47:00,49.8,46.8,30.02,North,355,0.0,0.0,89,0.00,,,0.00,meteohub,2013-05-06 09:47:00,
2013-05-06 04:52:00,49.8,46.8,30.02,North,355,0.0,0.0,89,0.00,,,0.00,meteohub,2013-05-06 09:52:00,
2013-05-06 04:57:00,49.8,46.8,30.02,North,355,0.0,1.0,89,0.00,,,0.00,meteohub,2013-05-06 09:57:00,
2013-05-06 05:02:00,50.0,46.9,30.03,North,355,0.0,1.0,89,0.00,,,0.00,meteohub,2013-05-06 10:02:00,
2013-05-06 05:07:00,50.2,47.1,30.02,SW,234,1.0,1.0,89,0.00,,,0.00,meteohub,2013-05-06 10:07:00,
2013-05-06 05:12:00,50.4,47.3,30.03,SW,234,0.0,3.0,89,0.00,,,0.00,meteohub,2013-05-06 10:12:00,
2013-05-06 05:17:00,50.5,47.1,30.02,SW,216,2.0,3.0,88,0.00,,,0.00,meteohub,2013-05-06 10:17:00,
2013-05-06 05:22:00,50.7,47.3,30.02,SW,216,2.0,5.0,88,0.00,,,0.00,meteohub,2013-05-06 10:22:00,
2013-05-06 05:27:00,51.1,47.3,30.02,SW,216,0.0,5.0,87,0.00,,,0.00,meteohub,2013-05-06 10:27:00,
2013-05-06 05:32:00,51.1,47.3,30.02,SW,216,0.0,5.0,87,0.00,,,0.00,meteohub,2013-05-06 10:32:00,
2013-05-06 05:37:00,51.3,47.5,30.03,SW,216,0.0,5.0,87,0.00,,,0.00,meteohub,2013-05-06 10:37:00,
2013-05-06 05:42:00,51.3,47.5,30.03,SW,216,0.0,3.0,87,0.00,,,0.00,meteohub,2013-05-06 10:42:00,
2013-05-06 05:47:00,51.3,47.8,30.03,SW,216,0.0,2.0,88,0.00,,,0.00,meteohub,2013-05-06 10:47:00,
2013-05-06 05:52:00,51.1,47.7,30.03,SW,216,0.0,2.0,88,0.00,,,0.00,meteohub,2013-05-06 10:52:00,
2013-05-06 05:57:00,51.1,47.7,30.03,SW,216,0.0,0.0,88,0.00,,,0.00,meteohub,2013-05-06 10:57:00,
2013-05-06 06:02:00,50.9,47.8,30.03,SW,216,4.0,4.0,89,0.00,,,0.00,meteohub,2013-05-06 11:02:00,
2013-05-06 06:07:00,50.9,48.0,30.04,SW,216,0.0,4.0,90,0.00,,,0.00,meteohub,2013-05-06 11:07:00,
2013-05-06 06:12:00,50.9,48.0,30.04,SW,216,3.0,4.0,90,0.00,,,0.00,meteohub,2013-05-06 11:12:00,
2013-05-06 06:17:00,50.9,48.0,30.04,SW,216,3.0,4.0,90,0.00,,,0.00,meteohub,2013-05-06 11:17:00,
2013-05-06 06:22:00,50.7,47.8,30.04,SW,216,0.0,4.0,90,0.00,,,0.00,meteohub,2013-05-06 11:22:00,
2013-05-06 06:27:00,50.7,48.2,30.04,SW,216,0.0,4.0,91,0.00,,,0.00,meteohub,2013-05-06 11:27:00,
2013-05-06 06:32:00,50.7,48.2,30.04,SW,216,0.0,4.0,91,0.00,,,0.00,meteohub,2013-05-06 11:32:00,
2013-05-06 06:37:00,50.7,48.2,30.04,SW,216,0.0,4.0,91,0.00,,,0.00,meteohub,2013-05-06 11:37:00,
2013-05-06 06:42:00,50.7,48.2,30.04,SW,216,2.0,5.0,91,0.00,,,0.00,meteohub,2013-05-06 11:42:00,
2013-05-06 06:47:00,50.9,48.4,30.05,SW,234,3.0,5.0,91,0.00,,,0.00,meteohub,2013-05-06 11:47:00,
2013-05-06 06:52:00,51.1,48.6,30.04,SW,234,5.0,5.0,91,0.00,,,0.00,meteohub,2013-05-06 11:52:00,
2013-05-06 06:57:00,51.3,48.4,30.05,SW,234,2.0,5.0,90,0.00,,,0.00,meteohub,2013-05-06 11:57:00,
2013-05-06 07:02:00,51.4,48.6,30.05,SW,227,2.0,6.0,90,0.00,,,0.00,meteohub,2013-05-06 12:02:00,
2013-05-06 07:07:00,51.8,48.7,30.05,SW,227,0.0,6.0,89,0.00,,,0.00,meteohub,2013-05-06 12:07:00,
2013-05-06 07:12:00,52.2,49.1,30.05,SW,227,0.0,6.0,89,0.00,,,0.00,meteohub,2013-05-06 12:12:00,
2013-05-06 07:17:00,52.3,48.9,30.05,SW,227,0.0,5.0,88,0.00,,,0.00,meteohub,2013-05-06 12:17:00,
2013-05-06 07:21:00,52.5,49.1,30.05,SW,227,2.0,5.0,88,0.00,,,0.00,meteohub,2013-05-06 12:21:00,
2013-05-06 07:27:00,52.9,49.5,30.05,SW,227,1.0,5.0,88,0.00,,,0.00,meteohub,2013-05-06 12:27:00,
2013-05-06 07:32:00,53.2,49.8,30.06,WSW,246,2.0,4.0,88,0.00,,,0.00,meteohub,2013-05-06 12:32:00,
2013-05-06 07:37:00,53.6,49.8,30.06,WSW,246,2.0,6.0,87,0.00,,,0.00,meteohub,2013-05-06 12:37:00,
2013-05-06 07:42:00,54.0,49.8,30.06,WSW,250,4.0,6.0,86,0.00,,,0.00,meteohub,2013-05-06 12:42:00,
2013-05-06 07:47:00,54.5,50.4,30.06,WSW,251,4.0,6.0,86,0.00,,,0.00,meteohub,2013-05-06 12:47:00,
2013-05-06 07:52:00,55.0,50.4,30.06,WSW,254,0.0,6.0,84,0.00,,,0.00,meteohub,2013-05-06 12:52:00,
2013-05-06 07:57:00,55.4,50.7,30.06,WSW,252,3.0,6.0,84,0.00,,,0.00,meteohub,2013-05-06 12:57:00,
2013-05-06 08:01:00,55.8,50.4,30.06,WSW,249,3.0,6.0,82,0.00,,,0.00,meteohub,2013-05-06 13:01:00,
2013-05-06 08:07:00,55.9,49.8,30.06,SW,235,3.0,7.0,80,0.00,,,0.00,meteohub,2013-05-06 13:07:00,
2013-05-06 08:12:00,56.5,50.7,30.06,SW,234,2.0,8.0,81,0.00,,,0.00,meteohub,2013-05-06 13:12:00,
2013-05-06 08:17:00,56.8,50.4,30.06,WSW,254,2.0,8.0,79,0.00,,,0.00,meteohub,2013-05-06 13:17:00,
2013-05-06 08:22:00,57.6,50.7,30.06,West,263,4.0,8.0,78,0.00,,,0.00,meteohub,2013-05-06 13:22:00,
2013-05-06 08:27:00,57.9,50.7,30.06,West,273,6.0,7.0,77,0.00,,,0.00,meteohub,2013-05-06 13:27:00,
2013-05-06 08:32:00,57.9,50.7,30.07,West,269,5.0,10.0,77,0.00,,,0.00,meteohub,2013-05-06 13:32:00,
2013-05-06 08:37:00,57.7,50.2,30.07,West,273,7.0,12.0,76,0.00,,,0.00,meteohub,2013-05-06 13:37:00,
2013-05-06 08:42:00,57.9,50.4,30.07,WSW,257,5.0,12.0,76,0.00,,,0.00,meteohub,2013-05-06 13:42:00,
2013-05-06 08:47:00,58.5,50.2,30.07,West,266,9.0,12.0,74,0.00,,,0.00,meteohub,2013-05-06 13:47:00,
2013-05-06 08:52:00,58.6,49.6,30.07,West,281,4.0,12.0,72,0.00,,,0.00,meteohub,2013-05-06 13:52:00,
2013-05-06 08:56:00,59.0,49.6,30.07,West,266,6.0,12.0,71,0.00,,,0.00,meteohub,2013-05-06 13:56:00,
2013-05-06 09:01:00,59.5,49.8,30.07,West,265,9.0,12.0,70,0.00,,,0.00,meteohub,2013-05-06 14:01:00,
2013-05-06 09:07:00,59.9,50.9,30.07,West,279,8.0,10.0,72,0.00,,,0.00,meteohub,2013-05-06 14:07:00,
2013-05-06 09:12:00,60.4,50.5,30.07,West,275,7.0,10.0,70,0.00,,,0.00,meteohub,2013-05-06 14:12:00,
2013-05-06 09:17:00,60.8,50.9,30.07,WNW,282,8.0,10.0,70,0.00,,,0.00,meteohub,2013-05-06 14:17:00,
2013-05-06 09:22:00,61.0,50.0,30.07,West,268,5.0,9.0,67,0.00,,,0.00,meteohub,2013-05-06 14:22:00,
2013-05-06 09:27:00,61.2,50.2,30.07,West,272,8.0,10.0,67,0.00,,,0.00,meteohub,2013-05-06 14:27:00,
2013-05-06 09:32:00,61.5,50.0,30.06,West,280,8.0,12.0,66,0.00,,,0.00,meteohub,2013-05-06 14:32:00,
2013-05-06 09:37:00,62.1,50.5,30.06,WNW,289,10.0,12.0,66,0.00,,,0.00,meteohub,2013-05-06 14:37:00,
2013-05-06 09:42:00,62.4,50.5,30.06,WSW,257,9.0,12.0,65,0.00,,,0.00,meteohub,2013-05-06 14:42:00,
2013-05-06 09:47:00,62.6,50.7,30.06,West,265,9.0,13.0,65,0.00,,,0.00,meteohub,2013-05-06 14:47:00,
2013-05-06 09:52:00,63.0,49.8,30.06,West,275,5.0,13.0,62,0.00,,,0.00,meteohub,2013-05-06 14:52:00,
2013-05-06 09:57:00,63.1,50.7,30.06,West,267,13.0,14.0,64,0.00,,,0.00,meteohub,2013-05-06 14:57:00,
2013-05-06 10:02:00,63.1,49.5,30.06,West,274,6.0,15.0,61,0.00,,,0.00,meteohub,2013-05-06 15:02:00,
2013-05-06 10:07:00,63.5,50.2,30.06,WNW,286,10.0,15.0,62,0.00,,,0.00,meteohub,2013-05-06 15:07:00,
2013-05-06 10:12:00,63.7,49.5,30.06,WNW,292,3.0,15.0,60,0.00,,,0.00,meteohub,2013-05-06 15:12:00,
2013-05-06 10:17:00,64.2,49.6,30.06,WNW,283,7.0,13.0,59,0.00,,,0.00,meteohub,2013-05-06 15:17:00,
2013-05-06 10:22:00,64.0,49.5,30.06,West,265,6.0,12.0,59,0.00,,,0.00,meteohub,2013-05-06 15:22:00,
2013-05-06 10:27:00,64.4,49.8,30.06,West,281,9.0,15.0,59,0.00,,,0.00,meteohub,2013-05-06 15:27:00,
2013-05-06 10:32:00,64.6,50.4,30.06,West,260,7.0,15.0,60,0.00,,,0.00,meteohub,2013-05-06 15:32:00,
2013-05-06 10:37:00,64.8,49.6,30.06,West,277,6.0,14.0,58,0.00,,,0.00,meteohub,2013-05-06 15:37:00,
2013-05-06 10:42:00,65.3,50.5,30.06,SW,232,6.0,12.0,59,0.00,,,0.00,meteohub,2013-05-06 15:42:00,
2013-05-06 10:47:00,65.7,50.0,30.06,WNW,285,9.0,12.0,57,0.00,,,0.00,meteohub,2013-05-06 15:47:00,
2013-05-06 10:52:00,65.7,50.0,30.06,West,280,5.0,12.0,57,0.00,,,0.00,meteohub,2013-05-06 15:52:00,
2013-05-06 10:57:00,65.8,49.3,30.06,West,281,10.0,14.0,55,0.00,,,0.00,meteohub,2013-05-06 15:57:00,
2013-05-06 11:02:00,66.0,49.8,30.06,WNW,290,8.0,14.0,56,0.00,,,0.00,meteohub,2013-05-06 16:02:00,
2013-05-06 11:07:00,66.4,49.6,30.05,WNW,301,4.0,14.0,55,0.00,,,0.00,meteohub,2013-05-06 16:07:00,
2013-05-06 11:11:00,66.6,49.5,30.05,WNW,294,5.0,13.0,54,0.00,,,0.00,meteohub,2013-05-06 16:11:00,
2013-05-06 11:16:00,66.9,50.2,30.05,WSW,241,7.0,15.0,55,0.00,,,0.00,meteohub,2013-05-06 16:16:00,
2013-05-06 11:21:00,67.6,50.9,30.06,WSW,237,2.0,15.0,55,0.00,,,0.00,meteohub,2013-05-06 16:21:00,
2013-05-06 11:27:00,67.5,50.2,30.06,SW,221,8.0,12.0,54,0.00,,,0.00,meteohub,2013-05-06 16:27:00,
2013-05-06 11:32:00,67.6,50.4,30.05,West,270,7.0,13.0,54,0.00,,,0.00,meteohub,2013-05-06 16:32:00,
2013-05-06 11:37:00,67.5,50.2,30.05,WNW,299,8.0,13.0,54,0.00,,,0.00,meteohub,2013-05-06 16:37:00,
2013-05-06 11:42:00,67.6,50.9,30.05,West,267,7.0,13.0,55,0.00,,,0.00,meteohub,2013-05-06 16:42:00,
2013-05-06 11:47:00,68.2,50.9,30.05,WNW,288,6.0,13.0,54,0.00,,,0.00,meteohub,2013-05-06 16:47:00,
2013-05-06 11:52:00,68.4,50.0,30.05,SW,220,5.0,14.0,52,0.00,,,0.00,meteohub,2013-05-06 16:52:00,
2013-05-06 11:57:00,68.2,49.8,30.05,West,264,9.0,16.0,52,0.00,,,0.00,meteohub,2013-05-06 16:57:00,
2013-05-06 12:02:00,68.2,50.4,30.04,WNW,286,6.0,16.0,53,0.00,,,0.00,meteohub,2013-05-06 17:02:00,
2013-05-06 12:07:00,68.0,49.6,30.04,WNW,296,9.0,16.0,52,0.00,,,0.00,meteohub,2013-05-06 17:07:00,
2013-05-06 12:12:00,68.4,49.5,30.04,West,275,10.0,15.0,51,0.00,,,0.00,meteohub,2013-05-06 17:12:00,
2013-05-06 12:17:00,68.2,50.9,30.04,WNW,301,11.0,15.0,54,0.00,,,0.00,meteohub,2013-05-06 17:17:00,
2013-05-06 12:22:00,68.7,50.4,30.03,WNW,289,7.0,15.0,52,0.00,,,0.00,meteohub,2013-05-06 17:22:00,
2013-05-06 12:27:00,68.9,50.5,30.03,NW,306,7.0,15.0,52,0.00,,,0.00,meteohub,2013-05-06 17:27:00,
2013-05-06 12:32:00,69.1,50.2,30.03,West,261,2.0,14.0,51,0.00,,,0.00,meteohub,2013-05-06 17:32:00,
2013-05-06 12:37:00,69.3,50.9,30.02,WNW,288,6.0,14.0,52,0.00,,,0.00,meteohub,2013-05-06 17:37:00,
2013-05-06 12:42:00,69.3,50.4,30.02,West,278,7.0,13.0,51,0.00,,,0.00,meteohub,2013-05-06 17:42:00,
2013-05-06 12:47:00,69.3,51.4,30.02,West,271,3.0,13.0,53,0.00,,,0.00,meteohub,2013-05-06 17:47:00,
2013-05-06 12:52:00,69.6,49.6,30.01,WNW,296,6.0,13.0,49,0.00,,,0.00,meteohub,2013-05-06 17:52:00,
2013-05-06 12:57:00,70.2,50.7,30.02,WSW,247,12.0,12.0,50,0.00,,,0.00,meteohub,2013-05-06 17:57:00,
2013-05-06 13:02:00,70.0,50.0,30.01,West,270,6.0,13.0,49,0.00,,,0.00,meteohub,2013-05-06 18:02:00,
2013-05-06 13:07:00,70.2,50.2,30.01,SW,231,4.0,13.0,49,0.00,,,0.00,meteohub,2013-05-06 18:07:00,
2013-05-06 13:12:00,70.2,50.2,30.01,West,262,2.0,15.0,49,0.00,,,0.00,meteohub,2013-05-06 18:12:00,
2013-05-06 13:17:00,70.5,49.8,30.01,West,261,3.0,15.0,48,0.00,,,0.00,meteohub,2013-05-06 18:17:00,
2013-05-06 13:22:00,70.9,50.2,30.01,West,270,3.0,15.0,48,0.00,,,0.00,meteohub,2013-05-06 18:22:00,
2013-05-06 13:27:00,71.6,50.4,30.01,WNW,294,3.0,11.0,47,0.00,,,0.00,meteohub,2013-05-06 18:27:00,
2013-05-06 13:32:00,71.4,50.7,30.01,WSW,248,8.0,11.0,48,0.00,,,0.00,meteohub,2013-05-06 18:32:00,
2013-05-06 13:37:00,71.4,51.3,30.00,SW,231,7.0,15.0,49,0.00,,,0.00,meteohub,2013-05-06 18:37:00,
2013-05-06 13:42:00,71.4,50.7,30.00,SW,231,9.0,15.0,48,0.00,,,0.00,meteohub,2013-05-06 18:42:00,
2013-05-06 13:47:00,72.1,50.7,30.00,West,272,8.0,18.0,47,0.00,,,0.00,meteohub,2013-05-06 18:47:00,
2013-05-06 13:52:00,72.0,50.7,30.00,WSW,252,5.0,18.0,47,0.00,,,0.00,meteohub,2013-05-06 18:52:00,
2013-05-06 13:57:00,72.3,51.4,29.99,SW,230,2.0,18.0,48,0.00,,,0.00,meteohub,2013-05-06 18:57:00,
2013-05-06 14:02:00,72.0,50.0,29.99,West,259,7.0,13.0,46,0.00,,,0.00,meteohub,2013-05-06 19:02:00,
2013-05-06 14:07:00,72.1,50.7,29.99,WSW,237,4.0,10.0,47,0.00,,,0.00,meteohub,2013-05-06 19:07:00,
2013-05-06 14:12:00,72.0,50.0,29.99,WSW,242,3.0,11.0,46,0.00,,,0.00,meteohub,2013-05-06 19:12:00,
2013-05-06 14:17:00,72.1,51.4,29.99,WSW,257,2.0,13.0,48,0.00,,,0.00,meteohub,2013-05-06 19:17:00,
2013-05-06 14:22:00,73.0,51.6,29.99,West,261,11.0,13.0,47,0.00,,,0.00,meteohub,2013-05-06 19:22:00,
2013-05-06 14:27:00,73.6,52.2,29.99,WSW,243,8.0,15.0,47,0.00,,,0.00,meteohub,2013-05-06 19:27:00,
2013-05-06 14:32:00,73.4,50.7,29.99,SW,222,6.0,15.0,45,0.00,,,0.00,meteohub,2013-05-06 19:32:00,
2013-05-06 14:37:00,73.8,52.9,29.99,WSW,237,16.0,16.0,48,0.00,,,0.00,meteohub,2013-05-06 19:37:00,
2013-05-06 14:42:00,73.4,51.4,29.99,WSW,253,10.0,17.0,46,0.00,,,0.00,meteohub,2013-05-06 19:42:00,
2013-05-06 14:47:00,73.6,52.2,29.98,West,261,8.0,17.0,47,0.00,,,0.00,meteohub,2013-05-06 19:47:00,
2013-05-06 14:52:00,73.6,51.4,29.98,WSW,240,10.0,17.0,46,0.00,,,0.00,meteohub,2013-05-06 19:52:00,
2013-05-06 14:57:00,73.8,52.3,29.98,WNW,301,13.0,14.0,47,0.00,,,0.00,meteohub,2013-05-06 19:57:00,
2013-05-06 15:02:00,73.6,51.4,29.98,West,262,10.0,14.0,46,0.00,,,0.00,meteohub,2013-05-06 20:02:00,
2013-05-06 15:07:00,73.9,51.8,29.97,SW,223,8.0,14.0,46,0.00,,,0.00,meteohub,2013-05-06 20:07:00,
2013-05-06 15:12:00,74.1,52.5,29.97,WNW,286,5.0,14.0,47,0.00,,,0.00,meteohub,2013-05-06 20:12:00,
2013-05-06 15:17:00,74.5,52.9,29.97,WSW,244,2.0,13.0,47,0.00,,,0.00,meteohub,2013-05-06 20:17:00,
2013-05-06 15:22:00,74.7,53.1,29.96,SW,231,4.0,13.0,47,0.00,,,0.00,meteohub,2013-05-06 20:22:00,
2013-05-06 15:27:00,74.7,53.6,29.96,West,277,8.0,12.0,48,0.00,,,0.00,meteohub,2013-05-06 20:27:00,
2013-05-06 15:32:00,74.5,52.9,29.96,West,273,12.0,17.0,47,0.00,,,0.00,meteohub,2013-05-06 20:32:00,
2013-05-06 15:37:00,74.3,52.2,29.96,West,261,2.0,17.0,46,0.00,,,0.00,meteohub,2013-05-06 20:37:00,
2013-05-06 15:42:00,74.7,53.1,29.96,West,269,10.0,17.0,47,0.00,,,0.00,meteohub,2013-05-06 20:42:00,
2013-05-06 15:47:00,74.5,52.3,29.96,West,280,7.0,14.0,46,0.00,,,0.00,meteohub,2013-05-06 20:47:00,
2013-05-06 15:52:00,74.3,54.0,29.96,West,269,4.0,14.0,49,0.00,,,0.00,meteohub,2013-05-06 20:52:00,
2013-05-06 15:57:00,74.7,53.1,29.96,WSW,256,6.0,16.0,47,0.00,,,0.00,meteohub,2013-05-06 20:57:00,
2013-05-06 16:02:00,74.7,53.1,29.95,WNW,290,11.0,16.0,47,0.00,,,0.00,meteohub,2013-05-06 21:02:00,
2013-05-06 16:07:00,74.8,52.7,29.95,West,266,12.0,16.0,46,0.00,,,0.00,meteohub,2013-05-06 21:07:00,
2013-05-06 16:12:00,75.4,53.8,29.95,SW,234,7.0,16.0,47,0.00,,,0.00,meteohub,2013-05-06 21:12:00,
2013-05-06 16:17:00,75.4,53.8,29.95,WSW,252,5.0,16.0,47,0.00,,,0.00,meteohub,2013-05-06 21:17:00,
2013-05-06 16:22:00,75.0,53.4,29.95,West,279,9.0,16.0,47,0.00,,,0.00,meteohub,2013-05-06 21:22:00,
2013-05-06 16:27:00,75.6,53.2,29.95,West,275,10.0,13.0,46,0.00,,,0.00,meteohub,2013-05-06 21:27:00,
2013-05-06 16:32:00,75.4,52.5,29.94,WNW,288,8.0,14.0,45,0.00,,,0.00,meteohub,2013-05-06 21:32:00,
2013-05-06 16:37:00,75.2,52.3,29.94,NW,313,9.0,18.0,45,0.00,,,0.00,meteohub,2013-05-06 21:37:00,
2013-05-06 16:42:00,75.4,53.2,29.94,WNW,288,4.0,18.0,46,0.00,,,0.00,meteohub,2013-05-06 21:42:00,
2013-05-06 16:47:00,75.7,52.9,29.94,WNW,290,6.0,18.0,45,0.00,,,0.00,meteohub,2013-05-06 21:47:00,
2013-05-06 16:52:00,75.9,54.3,29.94,WNW,283,5.0,14.0,47,0.00,,,0.00,meteohub,2013-05-06 21:52:00,
2013-05-06 16:57:00,75.9,53.6,29.94,WSW,250,6.0,14.0,46,0.00,,,0.00,meteohub,2013-05-06 21:57:00,
2013-05-06 17:02:00,75.7,53.4,29.94,WNW,283,6.0,13.0,46,0.00,,,0.00,meteohub,2013-05-06 22:02:00,
2013-05-06 17:07:00,75.6,54.5,29.94,West,271,3.0,14.0,48,0.00,,,0.00,meteohub,2013-05-06 22:07:00,
2013-05-06 17:12:00,75.4,53.2,29.94,WSW,242,5.0,18.0,46,0.00,,,0.00,meteohub,2013-05-06 22:12:00,
2013-05-06 17:17:00,75.0,52.9,29.94,WNW,294,11.0,18.0,46,0.00,,,0.00,meteohub,2013-05-06 22:17:00,
2013-05-06 17:22:00,75.0,54.0,29.94,West,275,9.0,18.0,48,0.00,,,0.00,meteohub,2013-05-06 22:22:00,
2013-05-06 17:27:00,75.0,54.0,29.94,WSW,248,1.0,16.0,48,0.00,,,0.00,meteohub,2013-05-06 22:27:00,
2013-05-06 17:32:00,75.0,54.0,29.94,West,272,10.0,15.0,48,0.00,,,0.00,meteohub,2013-05-06 22:32:00,
2013-05-06 17:37:00,75.2,54.1,29.94,SW,216,6.0,15.0,48,0.00,,,0.00,meteohub,2013-05-06 22:37:00,
2013-05-06 17:42:00,75.2,53.6,29.94,WNW,283,12.0,12.0,47,0.00,,,0.00,meteohub,2013-05-06 22:42:00,
2013-05-06 17:47:00,74.8,54.3,29.94,WSW,250,5.0,15.0,49,0.00,,,0.00,meteohub,2013-05-06 22:47:00,
2013-05-06 17:52:00,74.8,54.3,29.94,WNW,293,8.0,15.0,49,0.00,,,0.00,meteohub,2013-05-06 22:52:00,
2013-05-06 17:57:00,74.7,54.9,29.94,West,269,7.0,15.0,50,0.00,,,0.00,meteohub,2013-05-06 22:57:00,
2013-05-06 18:02:00,74.7,54.3,29.94,West,264,7.0,14.0,49,0.00,,,0.00,meteohub,2013-05-06 23:02:00,
2013-05-06 18:07:00,74.8,55.0,29.94,West,278,2.0,12.0,50,0.00,,,0.00,meteohub,2013-05-06 23:07:00,
2013-05-06 18:12:00,75.0,54.5,29.94,WNW,296,9.0,11.0,49,0.00,,,0.00,meteohub,2013-05-06 23:12:00,
2013-05-06 18:17:00,75.0,54.5,29.94,WNW,284,6.0,12.0,49,0.00,,,0.00,meteohub,2013-05-06 23:17:00,
2013-05-06 18:22:00,74.8,54.3,29.94,West,269,5.0,12.0,49,0.00,,,0.00,meteohub,2013-05-06 23:22:00,
2013-05-06 18:27:00,74.7,54.9,29.94,West,263,8.0,12.0,50,0.00,,,0.00,meteohub,2013-05-06 23:27:00,
2013-05-06 18:32:00,74.5,55.2,29.94,WSW,247,7.0,10.0,51,0.00,,,0.00,meteohub,2013-05-06 23:32:00,
2013-05-06 18:37:00,74.5,55.8,29.95,West,268,9.0,10.0,52,0.00,,,0.00,meteohub,2013-05-06 23:37:00,
2013-05-06 18:42:00,73.9,55.2,29.95,West,265,6.0,10.0,52,0.00,,,0.00,meteohub,2013-05-06 23:42:00,
2013-05-06 18:47:00,73.9,55.2,29.94,West,262,7.0,11.0,52,0.00,,,0.00,meteohub,2013-05-06 23:47:00,
2013-05-06 18:52:00,73.8,55.0,29.95,West,263,4.0,11.0,52,0.00,,,0.00,meteohub,2013-05-06 23:52:00,
2013-05-06 18:57:00,73.8,55.0,29.95,West,267,3.0,8.0,52,0.00,,,0.00,meteohub,2013-05-06 23:57:00,
2013-05-06 19:02:00,73.8,55.6,29.95,West,267,5.0,8.0,53,0.00,,,0.00,meteohub,2013-05-07 00:02:00,
2013-05-06 19:07:00,73.6,55.9,29.95,West,267,5.0,8.0,54,0.00,,,0.00,meteohub,2013-05-07 00:07:00,
2013-05-06 19:12:00,73.6,56.5,29.95,West,267,4.0,7.0,55,0.00,,,0.00,meteohub,2013-05-07 00:12:00,
2013-05-06 19:17:00,73.4,56.7,29.95,West,267,3.0,7.0,56,0.00,,,0.00,meteohub,2013-05-07 00:17:00,
2013-05-06 19:22:00,73.2,56.7,29.95,West,267,3.0,7.0,56,0.00,,,0.00,meteohub,2013-05-07 00:22:00,
2013-05-06 19:27:00,73.2,56.7,29.96,West,267,4.0,6.0,56,0.00,,,0.00,meteohub,2013-05-07 00:27:00,
2013-05-06 19:32:00,73.0,55.9,29.96,West,267,3.0,5.0,55,0.00,,,0.00,meteohub,2013-05-07 00:32:00,
2013-05-06 19:37:00,72.9,55.8,29.96,West,267,4.0,6.0,55,0.00,,,0.00,meteohub,2013-05-07 00:37:00,
2013-05-06 19:42:00,72.7,56.1,29.96,West,267,3.0,6.0,56,0.00,,,0.00,meteohub,2013-05-07 00:42:00,
2013-05-06 19:47:00,72.3,55.8,29.96,West,267,0.0,6.0,56,0.00,,,0.00,meteohub,2013-05-07 00:47:00,
2013-05-06 19:52:00,72.1,56.1,29.97,West,267,1.0,5.0,57,0.00,,,0.00,meteohub,2013-05-07 00:52:00,
2013-05-06 19:57:00,72.0,55.9,29.97,West,267,1.0,5.0,57,0.00,,,0.00,meteohub,2013-05-07 00:57:00,
2013-05-06 20:02:00,71.8,55.8,29.97,West,267,0.0,5.0,57,0.00,,,0.00,meteohub,2013-05-07 01:02:00,
2013-05-06 20:07:00,71.6,56.1,29.97,West,267,0.0,5.0,58,0.00,,,0.00,meteohub,2013-05-07 01:07:00,
2013-05-06 20:12:00,71.4,56.3,29.97,West,267,0.0,4.0,59,0.00,,,0.00,meteohub,2013-05-07 01:12:00,
2013-05-06 20:17:00,71.1,55.9,29.97,West,267,0.0,3.0,59,0.00,,,0.00,meteohub,2013-05-07 01:17:00,
2013-05-06 20:22:00,70.9,56.3,29.97,West,267,0.0,2.0,60,0.00,,,0.00,meteohub,2013-05-07 01:22:00,
2013-05-06 20:27:00,70.5,55.9,29.97,West,267,0.0,2.0,60,0.00,,,0.00,meteohub,2013-05-07 01:27:00,
2013-05-06 20:32:00,70.3,56.3,29.97,West,267,0.0,2.0,61,0.00,,,0.00,meteohub,2013-05-07 01:32:00,
2013-05-06 20:37:00,70.2,56.1,29.97,West,267,0.0,1.0,61,0.00,,,0.00,meteohub,2013-05-07 01:37:00,
2013-05-06 20:42:00,69.6,56.5,29.97,West,267,0.0,1.0,63,0.00,,,0.00,meteohub,2013-05-07 01:42:00,
2013-05-06 20:47:00,69.3,56.5,29.97,West,267,0.0,0.0,64,0.00,,,0.00,meteohub,2013-05-07 01:47:00,
2013-05-06 20:52:00,68.7,56.1,29.97,West,267,0.0,0.0,64,0.00,,,0.00,meteohub,2013-05-07 01:52:00,
2013-05-06 20:57:00,68.5,56.3,29.97,West,267,0.0,0.0,65,0.00,,,0.00,meteohub,2013-05-07 01:57:00,
2013-05-06 21:02:00,68.2,56.3,29.98,West,267,0.0,0.0,66,0.00,,,0.00,meteohub,2013-05-07 02:02:00,
2013-05-06 21:07:00,67.8,56.5,29.98,West,267,0.0,0.0,67,0.00,,,0.00,meteohub,2013-05-07 02:07:00,
2013-05-06 21:12:00,67.5,56.5,29.98,West,267,0.0,0.0,68,0.00,,,0.00,meteohub,2013-05-07 02:12:00,
2013-05-06 21:17:00,67.1,56.7,29.98,West,267,0.0,0.0,69,0.00,,,0.00,meteohub,2013-05-07 02:17:00,
2013-05-06 21:22:00,66.9,56.5,29.98,West,267,0.0,0.0,69,0.00,,,0.00,meteohub,2013-05-07 02:22:00,
2013-05-06 21:27:00,66.7,56.7,29.98,West,267,0.0,0.0,70,0.00,,,0.00,meteohub,2013-05-07 02:27:00,
2013-05-06 21:32:00,66.7,57.0,29.99,West,267,0.0,0.0,71,0.00,,,0.00,meteohub,2013-05-07 02:32:00,
2013-05-06 21:37:00,66.6,56.8,29.99,West,267,0.0,0.0,71,0.00,,,0.00,meteohub,2013-05-07 02:37:00,
2013-05-06 21:42:00,66.4,57.0,29.99,West,267,0.0,0.0,72,0.00,,,0.00,meteohub,2013-05-07 02:42:00,
2013-05-06 21:47:00,66.4,57.0,29.99,West,267,0.0,0.0,72,0.00,,,0.00,meteohub,2013-05-07 02:47:00,
2013-05-06 21:52:00,66.2,57.2,29.99,West,267,0.0,0.0,73,0.00,,,0.00,meteohub,2013-05-07 02:52:00,
2013-05-06 21:58:00,66.0,57.2,30.00,West,267,0.0,0.0,73,0.00,,,0.00,meteohub,2013-05-07 02:58:00,
2013-05-06 22:03:00,65.8,57.4,30.00,West,267,0.0,0.0,74,0.00,,,0.00,meteohub,2013-05-07 03:03:00,
2013-05-06 22:08:00,65.7,57.2,30.00,West,267,0.0,0.0,74,0.00,,,0.00,meteohub,2013-05-07 03:08:00,
2013-05-06 22:13:00,65.5,57.4,30.00,West,267,0.0,0.0,75,0.00,,,0.00,meteohub,2013-05-07 03:13:00,
2013-05-06 22:18:00,65.5,57.4,30.00,West,267,0.0,0.0,75,0.00,,,0.00,meteohub,2013-05-07 03:18:00,
2013-05-06 22:23:00,65.3,57.2,30.00,West,267,0.0,0.0,75,0.00,,,0.00,meteohub,2013-05-07 03:23:00,
2013-05-06 22:28:00,65.1,57.4,30.00,West,267,0.0,0.0,76,0.00,,,0.00,meteohub,2013-05-07 03:28:00,
2013-05-06 22:33:00,64.8,57.0,30.00,West,267,0.0,0.0,76,0.00,,,0.00,meteohub,2013-05-07 03:33:00,
2013-05-06 22:38:00,64.6,56.8,30.00,West,267,0.0,0.0,76,0.00,,,0.00,meteohub,2013-05-07 03:38:00,
2013-05-06 22:43:00,64.2,56.5,30.00,West,267,0.0,0.0,76,0.00,,,0.00,meteohub,2013-05-07 03:43:00,
2013-05-06 22:48:00,64.4,56.7,30.00,West,267,0.0,0.0,76,0.00,,,0.00,meteohub,2013-05-07 03:48:00,
2013-05-06 22:53:00,64.4,56.7,30.01,West,267,0.0,0.0,76,0.00,,,0.00,meteohub,2013-05-07 03:53:00,
2013-05-06 22:58:00,64.2,56.5,30.00,West,267,1.0,0.0,76,0.00,,,0.00,meteohub,2013-05-07 03:58:00,
2013-05-06 23:01:00,64.2,56.5,30.00,West,267,0.0,4.0,76,0.00,,,0.00,meteohub,2013-05-07 04:01:00,
2013-05-06 23:02:00,64.2,56.5,30.00,West,267,0.0,4.0,76,0.00,,,0.00,meteohub,2013-05-07 04:02:00,
2013-05-06 23:07:00,64.2,56.8,30.00,West,267,2.0,4.0,77,0.00,,,0.00,meteohub,2013-05-07 04:07:00,
2013-05-06 23:12:00,64.2,57.2,30.00,West,267,2.0,6.0,78,0.00,,,0.00,meteohub,2013-05-07 04:12:00,
2013-05-06 23:17:00,64.2,57.6,30.00,West,267,1.0,6.0,79,0.00,,,0.00,meteohub,2013-05-07 04:17:00,
2013-05-06 23:22:00,64.2,57.6,30.00,West,267,2.0,6.0,79,0.00,,,0.00,meteohub,2013-05-07 04:22:00,
2013-05-06 23:27:00,64.0,57.7,30.00,West,267,0.0,5.0,80,0.00,,,0.00,meteohub,2013-05-07 04:27:00,
2013-05-06 23:32:00,64.0,57.7,30.00,SW,218,2.0,5.0,80,0.00,,,0.00,meteohub,2013-05-07 04:32:00,
2013-05-06 23:37:00,63.9,57.9,30.00,WSW,238,1.0,7.0,81,0.00,,,0.00,meteohub,2013-05-07 04:37:00,
2013-05-06 23:42:00,63.7,57.7,30.00,SW,226,5.0,7.0,81,0.00,,,0.00,meteohub,2013-05-07 04:42:00,
2013-05-06 23:47:00,63.7,58.1,30.00,WSW,240,4.0,7.0,82,0.00,,,0.00,meteohub,2013-05-07 04:47:00,
2013-05-06 23:52:00,63.3,57.7,30.00,WSW,238,1.0,6.0,82,0.00,,,0.00,meteohub,2013-05-07 04:52:00,
2013-05-06 23:57:00,63.3,57.7,30.00,WSW,238,0.0,6.0,82,0.00,,,0.00,meteohub,2013-05-07 04:57:00,